Regional Weather Roundup
Issued by NWS Charleston, WV

Home | Current Version | Previous Version | Text Only | Print | Product List | Glossary Off
Versions: 1 2 3 4 5 6 7 8 9 10 11 12 13 14 15 16 17 18 19 20 21 22 23 24 25 26 27 28

000
ASUS41 KRLX 160510
RWRRLX
West Virginia Regional Weather Roundup
National Weather Service Charleston WV
100 AM EDT MON OCT 16 2017

Note: "fair" indicates few or no clouds below 12,000 feet with no
significant weather and/or obstructions to visibility.

WVZ003-160600-
Northern Panhandle of West Virginia

CITY           SKY/WX    TMP DP  RH WIND       PRES   REMARKS
WHEELING       CLOUDY    52  46  80 W6        30.07R
$$

WVZ009-160600-
Northwest West Virginia

CITY           SKY/WX    TMP DP  RH WIND       PRES   REMARKS
PARKERSBURG    CLEAR     51  46  83 W7        30.14R
$$

WVZ006-160600-
Western West Virginia

CITY           SKY/WX    TMP DP  RH WIND       PRES   REMARKS
HUNTINGTON     CLOUDY    54  44  69 W3        30.17R
$$

WVZ015-160600-
West Central West Virginia

CITY           SKY/WX    TMP DP  RH WIND       PRES   REMARKS
CHARLESTON     CLOUDY    54  47  77 W7        30.15R
$$

WVZ022-031-160600-
North Central West Virginia

CITY           SKY/WX    TMP DP  RH WIND       PRES   REMARKS
CLARKSBURG     CLOUDY    57  50  77 W9        30.08S
MORGANTOWN     CLOUDY    56  48  74 W6        30.08R
$$

WVZ025-035-042-045-160600-
Southern West Virginia

CITY           SKY/WX    TMP DP  RH WIND       PRES   REMARKS
BECKLEY        LGT RAIN  53  51  93 N13       30.12R FOG
LOGAN          CLOUDY    50  46  87 NW5G12    30.17R
BLUEFIELD      CLOUDY    56  54  93 W6        30.11R
LEWISBURG      LGT RAIN  58  54  88 N8        30.08S
$$

WVZ047-160600-
Northern Mountains of West Virginia

CITY           SKY/WX    TMP DP  RH WIND       PRES   REMARKS
ELKINS         CLOUDY    54  49  83 N6        30.09R
$$

WVZ052-160600-
Eastern Panhandle of West Virginia

CITY           SKY/WX    TMP DP  RH WIND       PRES   REMARKS
MARTINSBURG    CLOUDY    65  55  70 NW13G21   29.94R
PETERSBURG     CLOUDY    63  52  66 NW7       30.01R
$$




USA.gov is the U.S. government's official web portal to all federal, state and local government web resources and services.